[[{"header":{"parameterUnit":"m.s-1","parameterCategory":1,"la1":30.2991,"la2":30.254,"lo1":-89.0895,"lo2":-89.0444,"dy":0.0017,"dx":0.0017,"nx":28,"ny":28,"refTime":"2023-10-13T03:00:00:Z","depth":0,"parameterNumber":2,"parameterNumberName":"U-component_of_WINDS"},"data":[0,0,0,0,0,0,0,0,0,0,0,0,0,0,0,0,0,0,0,0,0,0,0,0,0,0,0,0,0,0,0,0,0,0,0,0,0,0,0,0,0,0,0,0,0,0,0,0,0,0,0,0,0,0,0,0,0,0,0.2191,0.2192,0,0.2274,0.2275,0.2276,0.2313,0.2313,0.2313,0.2313,0.2398,0.2401,0.2403,0,0,0,0,0,0,0,0,0,0,0,0,0,0.2063,0.2065,0.2191,0.2192,0.2193,0.2274,0.2275,0.2277,0.2313,0.2313,0.2313,0.2313,0.2397,0.24,0.2403,0,0,0,0,0,0,0,0,0,0,0,0,0,0.2129,0.2066,0.2191,0.2221,0.2225,0.2274,0.2275,0.2277,0.2313,0.2313,0.2313,0.2312,0.2397,0.24,0.2404,0.2429,0,0,0.2415,0.2416,0,0,0,0,0,0,0,0,0.2126,0.2134,0.2216,0.2219,0.2223,0.2283,0.2262,0.2328,0.2313,0.2279,0.2313,0.2312,0.236,0.2367,0.2383,0.2433,0.2437,0.2415,0.2417,0.2419,0.242,0,0,0,0,0,0,0,0.2121,0.2131,0.2224,0.2217,0.2221,0.223,0.2239,0.2274,0.232,0.2282,0.2285,0.2295,0.2362,0.2379,0.2385,0.2438,0.2415,0.2418,0.242,0.2422,0.2513,0.2513,0,0,0,0,0,0,0.2111,0.2127,0.2221,0.2227,0.2173,0.2233,0.2243,0.2264,0.2319,0.2328,0.2295,0.2296,0.2373,0.2381,0.2388,0.2422,0.2419,0.2422,0.2424,0.2513,0.2513,0.2513,0,0,0,0,0,0,0.2109,0.212,0.2218,0.2177,0.2191,0.2235,0.2258,0.2266,0.2283,0.2329,0.2337,0.2304,0.2373,0.2383,0.2419,0.2425,0.2424,0.2427,0.2512,0.2513,0.2513,0.2488,0,0,0,0,0,0,0.2105,0.2118,0.2129,0.2177,0.2193,0.2247,0.2259,0.2267,0.2289,0.2291,0.2339,0.2347,0.2374,0.2413,0.2422,0.243,0.243,0.2512,0.2513,0.2513,0.2489,0.2488,0.2487,0,0,0,0,0,0.21,0.2119,0.2129,0.214,0.2207,0.2247,0.2256,0.2286,0.2289,0.23,0.2329,0.2346,0.2423,0.2416,0.2427,0.2436,0.2512,0.2513,0.2513,0.2489,0.2488,0.2487,0,0,0,0,0,0,0.207,0.2126,0.2138,0.2173,0.2205,0.2254,0.2268,0.2284,0.2317,0.2318,0.2354,0.2364,0.2396,0.242,0.2412,0.2463,0.2469,0.2471,0.2447,0.2446,0.2445,0.2439,0.2433,0,0,0,0,0,0.2067,0.2096,0.2143,0.2169,0.2185,0.2223,0.2242,0.2263,0.2298,0.2312,0.2344,0.2377,0.2408,0.2428,0.246,0.2492,0.2503,0.2503,0.2502,0.2502,0.2504,0.2522,0.2522,0.2516,0.2515,0.2515,0,0,0.2063,0.2096,0.2112,0.2164,0.2192,0.222,0.2235,0.2265,0.2286,0.2316,0.2352,0.2376,0.2415,0.2449,0.2465,0.2469,0.2508,0.2502,0.2501,0.2504,0.2522,0.2523,0.2523,0.2516,0.2516,0.2516,0,0,0.2068,0.2097,0.2122,0.2149,0.219,0.2215,0.2221,0.2267,0.2284,0.232,0.2343,0.2368,0.2422,0.2449,0.247,0.2484,0.25,0.2493,0.2489,0.2506,0.2507,0.2507,0.2512,0.2513,0.2495,0.2495,0.2495,0,0.2057,0.2101,0.2132,0.2161,0.2182,0.221,0.2235,0.226,0.2309,0.2324,0.2327,0.2395,0.2423,0.2463,0.2466,0.2482,0.249,0.2488,0.2504,0.2505,0.2506,0.2511,0.2513,0.2494,0.2494,0.2494,0.2494,0,0.2085,0.2115,0.213,0.2177,0.22,0.2227,0.2261,0.2281,0.2299,0.2324,0.2359,0.2394,0.2433,0.2444,0.2462,0.2486,0.2488,0.2497,0.2503,0.2505,0.251,0.2513,0.2492,0.2493,0.2493,0.2493,0,0,0.2075,0.2138,0.2143,0.2164,0.2211,0.2234,0.2262,0.2299,0.2315,0.2348,0.2372,0.2416,0.2425,0.2448,0.2469,0.2484,0.2492,0.2492,0.2493,0.2491,0.2521,0.2514,0.2515,0.2503,0.2504,0.2504,0.2518,0,0.2087,0.2138,0.2166,0.2205,0.2232,0.2259,0.2282,0.2313,0.2337,0.2364,0.239,0.242,0.243,0.2444,0.246,0.2488,0.2499,0.2487,0.2525,0.2526,0.2515,0.2518,0.2511,0.2522,0.252,0.252,0.2521,0,0.2108,0.214,0.2181,0.2224,0.2237,0.2258,0.2294,0.2319,0.2355,0.2371,0.2396,0.2417,0.2446,0.2449,0.249,0.2481,0.2498,0.2515,0.2516,0.2521,0.2524,0.2523,0.2526,0.2528,0.2524,0.2524,0.2524,0,0.2097,0.215,0.2181,0.2198,0.2249,0.2263,0.2285,0.232,0.234,0.2372,0.2385,0.242,0.2439,0.2465,0.2494,0.2494,0.2532,0.2538,0.2546,0.2545,0.2553,0.2553,0.2559,0.2564,0.2564,0.2564,0.2564,0,0.2107,0.2131,0.2176,0.2196,0.2223,0.2255,0.2281,0.2305,0.2336,0.236,0.2385,0.2407,0.2444,0.247,0.2493,0.2523,0.2532,0.2545,0.2551,0.2544,0.2542,0.2556,0.2556,0.2564,0.2564,0.2564,0.2564,0,0.2099,0.2131,0.2166,0.2211,0.2223,0.2241,0.2279,0.2299,0.2323,0.2353,0.2362,0.24,0.2433,0.2464,0.2508,0.2523,0.2553,0.2561,0.2541,0.2544,0.255,0.2549,0.2567,0.257,0.2572,0.2572,0.2572,0,0.2104,0.2123,0.217,0.2188,0.2209,0.2237,0.2258,0.229,0.231,0.2351,0.2366,0.24,0.2429,0.2479,0.2511,0.2544,0.2553,0.2556,0.2558,0.2549,0.2553,0.2551,0.2553,0.2556,0.2556,0.2555,0.2555,0,0.2109,0.2124,0.2153,0.2187,0.2211,0.224,0.2269,0.2282,0.232,0.2341,0.2375,0.2397,0.2441,0.2474,0.2511,0.2533,0.255,0.2554,0.2558,0.255,0.2538,0.2545,0.2539,0.2554,0.2554,0.2554,0.2554,0.2554,0.2108,0.2126,0.2161,0.2193,0.2218,0.2245,0.2265,0.2292,0.232,0.2358,0.2375,0.2408,0.2442,0.2493,0.2515,0.2541,0.2546,0.2551,0.2552,0.2553,0.2551,0.2533,0.2548,0.2548,0.2548,0.2548,0.2548,0,0.2115,0.2138,0.2167,0.2207,0.2232,0.2245,0.2278,0.2298,0.2327,0.2357,0.2385,0.2422,0.2454,0.2488,0.2522,0.2537,0.2545,0.2545,0.2544,0.2549,0.2546,0.2539,0.2537,0.2537,0.2537,0.2537,0.2537,0.2537,0.2121,0.2152,0.217,0.2213,0.2237,0.227,0.2287,0.2312,0.2336,0.2377,0.2404,0.2425,0.2457,0.2493,0.2523,0.2532,0.2544,0.2541,0.2552,0.2548,0.2549,0.255,0.2544,0.2543,0.2543,0.2553,0.2553,0.2553]},{"header":{"parameterUnit":"m.s-1","parameterCategory":1,"la1":30.2991,"la2":30.254,"lo1":-89.0895,"lo2":-89.0444,"dy":0.0017,"dx":0.0017,"nx":28,"ny":28,"refTime":"2023-10-13T03:00:00:Z","depth":0,"parameterNumber":3,"parameterNumberName":"V-component_of_WINDS"},"data":[0,0,0,0,0,0,0,0,0,0,0,0,0,0,0,0,0,0,0,0,0,0,0,0,0,0,0,0,0,0,0,0,0,0,0,0,0,0,0,0,0,0,0,0,0,0,0,0,0,0,0,0,0,0,0,0,0,0,2.3665,2.3665,0,2.3614,2.3614,2.3613,2.3592,2.3592,2.3592,2.3592,2.3535,2.3534,2.3532,0,0,0,0,0,0,0,0,0,0,0,0,0,2.3739,2.3738,2.3665,2.3664,2.3664,2.3614,2.3614,2.3613,2.3592,2.3592,2.3592,2.3592,2.3536,2.3534,2.3532,0,0,0,0,0,0,0,0,0,0,0,0,0,2.3699,2.3737,2.3665,2.3647,2.3645,2.3614,2.3613,2.3613,2.3592,2.3592,2.3592,2.3592,2.3536,2.3534,2.3532,2.3513,0,0,2.3524,2.3523,0,0,0,0,0,0,0,0,2.3701,2.3696,2.3651,2.3649,2.3646,2.361,2.3619,2.3579,2.3592,2.3612,2.3592,2.3592,2.3559,2.3555,2.3545,2.351,2.3508,2.3524,2.3522,2.3521,2.3521,0,0,0,0,0,0,0,2.3704,2.3699,2.3645,2.365,2.3647,2.364,2.3635,2.3611,2.3585,2.361,2.3609,2.3603,2.3558,2.3547,2.3544,2.3507,2.3524,2.3522,2.352,2.3519,2.3452,2.3452,0,0,0,0,0,0,2.3711,2.3701,2.3646,2.3643,2.3675,2.3639,2.3633,2.3621,2.3585,2.358,2.3603,2.3602,2.3552,2.3546,2.3541,2.3516,2.3521,2.3519,2.3518,2.3452,2.3452,2.3452,0,0,0,0,0,0,2.3712,2.3706,2.3648,2.3672,2.3664,2.3637,2.3624,2.362,2.3609,2.358,2.3575,2.3597,2.3551,2.3545,2.352,2.3514,2.3518,2.3516,2.3453,2.3452,2.3452,2.3466,0,0,0,0,0,0,2.3715,2.3707,2.3701,2.3672,2.3663,2.363,2.3624,2.3619,2.3606,2.3604,2.3573,2.3568,2.3551,2.3524,2.3518,2.3511,2.3514,2.3453,2.3453,2.3452,2.3466,2.3466,2.3466,0,0,0,0,0,2.3717,2.3706,2.3701,2.3694,2.3655,2.363,2.3624,2.3606,2.3605,2.3598,2.3579,2.3569,2.3516,2.3522,2.3514,2.3506,2.3454,2.3453,2.3452,2.3466,2.3466,2.3466,0,0,0,0,0,0,2.3734,2.3702,2.3696,2.3675,2.3655,2.3626,2.3617,2.3607,2.3586,2.3585,2.3563,2.3556,2.3532,2.3517,2.3524,2.3485,2.3484,2.3481,2.3497,2.3496,2.3497,2.35,2.3512,0,0,0,0,0,2.3736,2.3719,2.3691,2.3676,2.3666,2.3643,2.3631,2.3619,2.3597,2.3588,2.3568,2.3545,2.3523,2.3509,2.3487,2.3464,2.3455,2.3454,2.3455,2.3455,2.3453,2.3437,2.3436,2.3449,2.3449,2.3449,0,0,2.3738,2.3719,2.3709,2.3679,2.3662,2.3644,2.3636,2.3618,2.3603,2.3585,2.3561,2.3544,2.3517,2.3493,2.3481,2.3479,2.3447,2.3454,2.3454,2.3452,2.3437,2.3435,2.3434,2.3449,2.3449,2.3449,0,0,2.3733,2.3718,2.3703,2.3686,2.3661,2.3645,2.3642,2.3613,2.3602,2.3578,2.3563,2.3545,2.3508,2.3489,2.3474,2.3461,2.345,2.3454,2.3455,2.344,2.3439,2.3438,2.3432,2.343,2.3453,2.3453,2.3453,0,2.3739,2.3713,2.3695,2.3677,2.3663,2.3647,2.3631,2.3615,2.3583,2.3573,2.3572,2.3524,2.3505,2.3475,2.3472,2.3461,2.3455,2.3458,2.3441,2.344,2.3438,2.3432,2.343,2.3453,2.3453,2.3453,2.3453,0,2.3721,2.3702,2.3693,2.3664,2.3649,2.3632,2.361,2.3596,2.3585,2.3569,2.3543,2.3519,2.3492,2.3484,2.3472,2.3451,2.3451,2.3446,2.3443,2.3438,2.3431,2.3429,2.3454,2.3454,2.3454,2.3454,0,0,2.3726,2.3687,2.3684,2.367,2.364,2.3625,2.3606,2.358,2.3568,2.3547,2.3529,2.3497,2.3492,2.3475,2.3461,2.3449,2.3438,2.3444,2.3443,2.3443,2.3411,2.3415,2.3412,2.3431,2.343,2.343,2.3413,0,2.3716,2.3683,2.3666,2.364,2.3621,2.3605,2.3588,2.3567,2.3551,2.3532,2.3513,2.3491,2.3486,2.3476,2.3463,2.3442,2.3431,2.3443,2.3412,2.3411,2.3418,2.3409,2.3413,2.3399,2.341,2.341,2.341,0,2.3701,2.3681,2.3653,2.3624,2.3616,2.3601,2.3575,2.3558,2.3533,2.3522,2.3503,2.3489,2.3466,2.3466,2.3432,2.3441,2.3427,2.3415,2.3414,2.3409,2.341,2.3404,2.3394,2.3391,2.3406,2.3406,2.3407,0,2.3706,2.3672,2.365,2.3639,2.3605,2.3595,2.358,2.3555,2.3541,2.3517,2.3507,2.3481,2.3466,2.3446,2.3424,2.3426,2.3392,2.3391,2.3381,2.3381,2.3374,2.3375,2.3361,2.3367,2.3367,2.3367,2.3367,0,2.3697,2.368,2.3652,2.3638,2.3618,2.3598,2.3578,2.3561,2.3539,2.3521,2.3504,2.3487,2.3461,2.3439,2.3422,2.3396,2.339,2.3379,2.3374,2.338,2.3381,2.337,2.337,2.3366,2.3366,2.3366,2.3366,0,2.37,2.368,2.3655,2.3625,2.3617,2.3604,2.3577,2.3562,2.3545,2.3522,2.3515,2.3488,2.3462,2.3438,2.3403,2.3392,2.3365,2.336,2.3374,2.3371,2.3362,2.3363,2.334,2.3335,2.3345,2.3345,2.3345,0,2.3695,2.3682,2.3651,2.3638,2.3624,2.3603,2.3588,2.3566,2.3551,2.352,2.3509,2.3482,2.3459,2.3417,2.3393,2.3366,2.3359,2.3353,2.3355,2.336,2.3357,2.3358,2.3356,2.3353,2.3353,2.3353,2.3353,0,2.3688,2.3679,2.3659,2.3634,2.3617,2.3596,2.3575,2.3565,2.3539,2.3522,2.3496,2.3478,2.3443,2.3415,2.3385,2.3367,2.3355,2.3352,2.3348,2.3353,2.3362,2.3356,2.3373,2.3353,2.3353,2.3353,2.3353,2.3353,2.3686,2.3673,2.3649,2.3626,2.3608,2.3588,2.3572,2.3553,2.3532,2.3502,2.349,2.3463,2.3436,2.3394,2.3376,2.3353,2.3351,2.3345,2.3344,2.3343,2.3343,2.3366,2.3347,2.3347,2.3347,2.3347,2.3347,0,2.3678,2.3661,2.3641,2.3612,2.3593,2.3585,2.356,2.3545,2.3521,2.3498,2.3476,2.3444,2.3417,2.3391,2.3361,2.3348,2.3341,2.3341,2.3341,2.3337,2.3347,2.3353,2.3346,2.3346,2.3346,2.3346,2.3346,2.3346,2.3671,2.3648,2.3636,2.3602,2.3585,2.3559,2.3546,2.3527,2.3508,2.3474,2.3452,2.3435,2.3409,2.3378,2.3352,2.3344,2.3334,2.3334,2.3325,2.3336,2.3336,2.3336,2.3342,2.3333,2.3333,2.3316,2.3316,2.3316]}]]